Weather History for KWRL - April, 2013

Change the Weather History Date:

Tuesday, April 30, 2013

  Actual Average Record
Temperature  
Mean Temperature 38 °F 50 °F  
Max Temperature 44 °F 65 °F 88 °F (1992)
Min Temperature 32 °F 36 °F 20 °F (1967)
Degree Days  
Heating Degree Days 27 15  
Month to date heating degree days 724 581  
Since 1 July heating degree days 7179 7467  
Cooling Degree Days 0 0  
Month to date cooling degree days 0 1  
Year to date cooling degree days 0 1  
Moisture  
Dew Point 27 °F    
Average Humidity 65    
Maximum Humidity 92    
Minimum Humidity 37    
Precipitation  
Precipitation 0.02 in 0.04 in 1.31 in (2003)
Month to date precipitation 0.98 0.86  
Year to date precipitation 1.57 1.74  
Sea Level Pressure  
Sea Level Pressure 29.94 in    
Wind  
Wind Speed 9 mph (NNW)    
Max Wind Speed 22 mph    
Max Gust Speed 32 mph    
Visibility 7 miles    
Events Snow    
T = Trace of Precipitation, MM = Missing Value Source: NWS Daily Summary

Daily Weather History Graph

Daily Weather History Graph

Search for Another Location

Airport or City:

Trip Planner

Search our weather history database for the weather conditions in past years. The results will help you decide how hot, cold, wet, or windy it might be!

Date:

Astronomy

Apr. 30, 2013 Rise Set
Actual Time 6:04 AM MDT 8:14 PM MDT
Civil Twilight 5:32 AM MDT 8:45 PM MDT
Nautical Twilight 4:54 AM MDT 9:25 PM MDT
Astronomical Twilight 4:11 AM MDT 10:08 PM MDT
Moon 12:42 AM MDT 10:34 AM MDT
Length of Visible Light 15h 12m
Length of Day
14h 09m
Waning Gibbous, 69% of the Moon is Illuminated
Apr 30
Waning Gibbous
May 2
Last Quarter
May 9
New
May 17
First Quarter
May 24
Full

Hourly Weather History & Observations

Time (MDT) Temp. Windchill Dew Point Humidity Pressure Visibility Wind Dir Wind Speed Gust Speed Precip Events Conditions
12:53 AM 42.1 °F 36.6 °F 34.0 °F 73% 29.70 in 10.0 mi WNW 9.2 mph - 0.02 in   Overcast
1:53 AM 42.1 °F 38.4 °F 30.0 °F 62% 29.70 in 10.0 mi West 5.8 mph - N/A   Overcast
2:53 AM 41.0 °F 35.8 °F 30.0 °F 65% 29.71 in 10.0 mi West 8.1 mph - 0.00 in   Overcast
3:53 AM 39.9 °F 34.5 °F 28.9 °F 65% 29.73 in 10.0 mi WNW 8.1 mph - N/A   Overcast
4:53 AM 39.0 °F 31.8 °F 27.0 °F 62% 29.76 in 10.0 mi NNW 11.5 mph 17.3 mph N/A   Overcast
5:53 AM 39.0 °F - 28.0 °F 65% 29.76 in 10.0 mi Calm Calm - N/A   Overcast
6:53 AM 39.0 °F 33.4 °F 24.1 °F 55% 29.78 in 10.0 mi NW 8.1 mph - N/A   Overcast
7:53 AM 39.0 °F 31.4 °F 21.0 °F 49% 29.83 in 10.0 mi NNW 12.7 mph - N/A   Overcast
8:53 AM 39.0 °F 32.3 °F 19.0 °F 45% 29.86 in 10.0 mi North 10.4 mph - N/A   Overcast
9:53 AM 37.9 °F 35.5 °F 21.0 °F 51% 29.89 in 10.0 mi Variable 3.5 mph - N/A   Overcast
10:53 AM 37.0 °F 29.8 °F 24.1 °F 59% 29.91 in 7.0 mi NW 10.4 mph - N/A   Overcast
11:08 AM 35.6 °F 32.8 °F 24.8 °F 65% 29.89 in 1.8 mi Variable 3.5 mph - 0.00 in Snow Light Snow
11:15 AM 35.6 °F 30.7 °F 26.6 °F 70% 29.89 in 3.0 mi Variable 5.8 mph - 0.00 in   Haze
11:42 AM 35.6 °F 29.2 °F 28.4 °F 75% 29.89 in 10.0 mi East 8.1 mph - 0.00 in   Overcast
11:53 AM 36.0 °F 32.1 °F 27.0 °F 70% 29.94 in 10.0 mi ESE 4.6 mph - 0.00 in   Overcast
12:53 PM 37.0 °F 28.9 °F 28.9 °F 73% 29.91 in 5.0 mi SSE 12.7 mph - 0.00 in Snow Light Snow
1:53 PM 39.0 °F 31.8 °F 28.0 °F 65% 29.91 in 10.0 mi South 11.5 mph - 0.00 in   Overcast
2:53 PM 41.0 °F 35.2 °F 26.1 °F 55% 29.91 in 10.0 mi SSE 9.2 mph - N/A   Overcast
3:53 PM 43.0 °F 40.3 °F 24.1 °F 47% 29.92 in 10.0 mi SW 4.6 mph - N/A   Overcast
4:53 PM 44.1 °F - 19.9 °F 38% 29.94 in 10.0 mi Calm Calm - N/A   Overcast
5:53 PM 43.0 °F 37.2 °F 26.1 °F 51% 29.99 in 10.0 mi WSW 10.4 mph - N/A   Overcast
7:53 PM 39.9 °F 32.1 °F 23.0 °F 51% 30.07 in 10.0 mi WNW 13.8 mph - N/A   Overcast
8:53 PM 39.0 °F 29.9 °F 24.1 °F 55% 30.11 in 10.0 mi NW 17.3 mph 26.5 mph N/A   Overcast
9:53 PM 37.9 °F 28.9 °F 30.0 °F 73% 30.15 in 10.0 mi NNW 16.1 mph - N/A   Overcast
10:53 PM 34.0 °F 22.4 °F 30.9 °F 89% 30.17 in 7.0 mi East 20.7 mph 26.5 mph 0.00 in Snow Light Snow
11:02 PM 33.8 °F 23.9 °F 30.2 °F 87% 30.11 in 2.0 mi ENE 15.0 mph - 0.00 in Snow Light Snow
11:08 PM 33.8 °F 22.5 °F 30.2 °F 87% 30.11 in 1.2 mi ENE 19.6 mph 25.3 mph 0.00 in Snow Light Snow
11:12 PM 33.8 °F 22.8 °F 30.2 °F 87% 30.11 in 0.8 mi East 18.4 mph 25.3 mph 0.00 in Snow Light Snow
11:24 PM 32.0 °F 22.5 °F 30.2 °F 93% 30.12 in 0.8 mi East 12.7 mph - 0.00 in Snow Light Snow
11:51 PM 32.0 °F 23.6 °F 30.2 °F 93% 30.13 in 1.0 mi SE 10.4 mph - 0.01 in Snow Light Snow
11:53 PM 32.0 °F 24.2 °F 30.9 °F 96% 30.21 in 1.2 mi SE 9.2 mph - 0.01 in Snow Light Snow